Manistique, MI

9:19 PM EDT on August 19, 2017 (GMT -0400)
Schoolcraft County

Weather History for KISQ - December, 2012

Change the Weather History Date:

Monday, December 3, 2012

  Actual Average Record
Temperature  
Mean Temperature 46 °F -  
Max Temperature 50 °F 32 °F 50 °F (1982)
Min Temperature 41 °F 17 °F -8 °F (1976)
Degree Days  
Heating Degree Days 20    
Moisture  
Dew Point 42 °F    
Average Humidity 90    
Maximum Humidity 94    
Minimum Humidity 81    
Precipitation  
Precipitation 0.00 in - - ()
Sea Level Pressure  
Sea Level Pressure 29.84 in    
Wind  
Wind Speed 10 mph (SSE)    
Max Wind Speed 16 mph    
Max Gust Speed 22 mph    
Visibility 4 miles    
Events Fog , Rain    
Averages and records for this station are not official NWS values.
T = Trace of Precipitation, MM = Missing Value Source: NWS Daily Summary

Daily Weather History Graph

Daily Weather History Graph

Search for Another Location

Airport or City:

Trip Planner

Search our weather history database for the weather conditions in past years. The results will help you decide how hot, cold, wet, or windy it might be!

Date:

Astronomy

Dec. 03, 2012 Rise Set
Actual Time 8:08 AM EST 5:00 PM EST
Civil Twilight 7:34 AM EST 5:34 PM EST
Nautical Twilight 6:57 AM EST 6:11 PM EST
Astronomical Twilight 6:21 AM EST 6:47 PM EST
Moon 9:55 PM EST (12/3) 11:24 AM EST (12/3)
Length of Visible Light 9h 59m
Length of Day
8h 51m
Waning Gibbous, 78% of the Moon is Illuminated
Dec 3
Waning Gibbous
Dec 6
Last Quarter
Dec 13
New
Dec 20
First Quarter
Dec 28
Full

Hourly Weather History & Observations

Time (EST) Temp. Windchill Dew Point Humidity Pressure Visibility Wind Dir Wind Speed Gust Speed Precip Events Conditions
12:15 AM 41.0 °F 36.4 °F 37.4 °F 87% 30.05 in 10.0 mi South 6.9 mph - N/A   Overcast
12:35 AM 42.8 °F 38.0 °F 37.4 °F 81% 30.06 in 10.0 mi South 8.1 mph - N/A   Overcast
12:55 AM 42.8 °F 37.5 °F 37.4 °F 81% 30.05 in 10.0 mi South 9.2 mph - N/A   Overcast
1:15 AM 41.0 °F 36.4 °F 37.4 °F 87% 30.06 in 10.0 mi South 6.9 mph - N/A   Overcast
1:35 AM 41.0 °F 34.3 °F 37.4 °F 87% 30.06 in 10.0 mi South 11.5 mph - N/A   Overcast
1:55 AM 41.0 °F 35.2 °F 37.4 °F 87% 30.05 in 10.0 mi South 9.2 mph - N/A   Overcast
2:14 AM 41.0 °F 34.7 °F 37.4 °F 87% 30.05 in 10.0 mi South 10.4 mph - N/A   Overcast
2:35 AM 41.0 °F 35.2 °F 37.4 °F 87% 30.04 in 10.0 mi South 9.2 mph 17.3 mph N/A   Overcast
2:55 AM 41.0 °F 34.7 °F 37.4 °F 87% 30.04 in 10.0 mi South 10.4 mph - N/A   Overcast
3:14 AM 41.0 °F 33.1 °F 37.4 °F 87% 30.04 in 10.0 mi South 15.0 mph - N/A   Overcast
3:35 AM 41.0 °F 33.5 °F 37.4 °F 87% 30.04 in 10.0 mi South 13.8 mph 19.6 mph N/A   Overcast
3:55 AM 41.0 °F 33.9 °F 37.4 °F 87% 30.04 in 10.0 mi South 12.7 mph - N/A   Overcast
4:15 AM 41.0 °F 33.9 °F 37.4 °F 87% 30.03 in 10.0 mi South 12.7 mph 16.1 mph N/A   Overcast
4:35 AM 41.0 °F 33.5 °F 37.4 °F 87% 30.02 in 10.0 mi South 13.8 mph - N/A   Overcast
4:54 AM 41.0 °F 34.3 °F 37.4 °F 87% 30.01 in 10.0 mi South 11.5 mph - N/A   Overcast
5:15 AM 41.0 °F 34.7 °F 37.4 °F 87% 30.00 in 10.0 mi South 10.4 mph - N/A   Overcast
5:35 AM 41.0 °F 35.2 °F 37.4 °F 87% 29.99 in 10.0 mi South 9.2 mph - N/A   Overcast
5:54 AM 41.0 °F 35.2 °F 37.4 °F 87% 30.00 in 10.0 mi South 9.2 mph - N/A   Overcast
6:15 AM 41.0 °F 33.9 °F 37.4 °F 87% 30.00 in 10.0 mi South 12.7 mph - N/A   Overcast
6:34 AM 41.0 °F 34.3 °F 37.4 °F 87% 30.00 in 10.0 mi South 11.5 mph - N/A   Overcast
6:55 AM 41.0 °F 34.3 °F 37.4 °F 87% 30.00 in 10.0 mi South 11.5 mph 18.4 mph N/A   Overcast
7:15 AM 41.0 °F 33.9 °F 37.4 °F 87% 29.99 in 10.0 mi SSE 12.7 mph - N/A   Overcast
7:34 AM 41.0 °F 33.9 °F 37.4 °F 87% 29.98 in 7.0 mi SSE 12.7 mph - N/A   Overcast
7:55 AM 42.8 °F 37.5 °F 39.2 °F 87% 29.98 in 7.0 mi South 9.2 mph - N/A   Overcast
8:14 AM 42.8 °F 38.6 °F 39.2 °F 87% 29.97 in 5.0 mi SSE 6.9 mph - N/A   Overcast
8:35 AM 42.8 °F 37.0 °F 39.2 °F 87% 29.97 in 2.5 mi SSE 10.4 mph - N/A   Overcast
8:55 AM 42.8 °F 37.5 °F 39.2 °F 87% 29.96 in 1.0 mi SE 9.2 mph - N/A   Overcast
9:15 AM 42.8 °F 37.5 °F 39.2 °F 87% 29.96 in 0.5 mi SE 9.2 mph - N/A Fog Fog
9:35 AM 42.8 °F 37.5 °F 39.2 °F 87% 29.94 in 0.5 mi SE 9.2 mph - N/A Fog Fog
10:15 AM 42.8 °F 36.6 °F 41.0 °F 93% 29.93 in 0.5 mi SE 11.5 mph 17.3 mph N/A Fog Fog
10:35 AM 42.8 °F 36.2 °F 41.0 °F 93% 29.92 in 0.8 mi ESE 12.7 mph 18.4 mph N/A   Overcast
10:54 AM 44.6 °F 38.1 °F 41.0 °F 87% 29.91 in 1.5 mi SE 13.8 mph 18.4 mph N/A   Overcast
11:15 AM 44.6 °F 39.2 °F 42.8 °F 93% 29.90 in 1.8 mi ESE 10.4 mph 17.3 mph N/A   Overcast
11:35 AM 44.6 °F 39.2 °F 41.0 °F 87% 29.89 in 1.8 mi SE 10.4 mph - N/A   Overcast
11:55 AM 44.6 °F 38.8 °F 42.8 °F 93% 29.87 in 2.0 mi SE 11.5 mph - N/A   Overcast
12:15 PM 44.6 °F 38.8 °F 42.8 °F 93% 29.86 in 2.0 mi SE 11.5 mph - N/A   Overcast
12:35 PM 46.4 °F 41.1 °F 42.8 °F 87% 29.84 in 2.5 mi SE 11.5 mph - N/A   Overcast
12:55 PM 46.4 °F 40.7 °F 42.8 °F 87% 29.84 in 3.0 mi SE 12.7 mph 17.3 mph N/A   Overcast
1:15 PM 46.4 °F 40.7 °F 42.8 °F 87% 29.82 in 2.5 mi SE 12.7 mph - N/A   Overcast
1:34 PM 46.4 °F 41.5 °F 42.8 °F 87% 29.80 in 2.0 mi SE 10.4 mph 17.3 mph N/A   Overcast
1:55 PM 46.4 °F 41.5 °F 44.6 °F 93% 29.78 in 1.0 mi SE 10.4 mph 16.1 mph N/A   Overcast
2:15 PM 46.4 °F 41.1 °F 44.6 °F 93% 29.76 in 0.8 mi SE 11.5 mph 16.1 mph N/A   Overcast
2:35 PM 46.4 °F 41.1 °F 44.6 °F 93% 29.75 in 0.5 mi SE 11.5 mph 18.4 mph N/A Fog Fog
2:55 PM 46.4 °F 40.4 °F 44.6 °F 93% 29.74 in 0.5 mi SE 13.8 mph 17.3 mph N/A Fog Fog
3:15 PM 48.2 °F - 46.4 °F 93% 29.73 in 0.5 mi SE 12.7 mph 19.6 mph N/A   Light Drizzle
3:35 PM 48.2 °F - 46.4 °F 93% 29.72 in 0.5 mi SE 11.5 mph 17.3 mph N/A Rain Light Rain
3:55 PM 48.2 °F - 46.4 °F 93% 29.71 in 1.0 mi SE 10.4 mph - N/A   Overcast
4:15 PM 48.2 °F - 46.4 °F 93% 29.70 in 1.0 mi SE 11.5 mph 16.1 mph N/A   Overcast
4:35 PM 48.2 °F - 46.4 °F 93% 29.70 in 0.8 mi SE 11.5 mph 17.3 mph N/A   Overcast
4:54 PM 48.2 °F - 46.4 °F 93% 29.69 in 1.0 mi SE 11.5 mph - N/A   Overcast
5:15 PM 48.2 °F - 46.4 °F 93% 29.68 in 0.8 mi SSE 10.4 mph 18.4 mph N/A Rain Rain
5:35 PM 48.2 °F - 46.4 °F 93% 29.68 in 0.8 mi SSE 9.2 mph 17.3 mph N/A Rain Light Rain
5:54 PM 50.0 °F - 48.2 °F 94% 29.68 in 0.8 mi South 15.0 mph - N/A Rain Light Rain
6:15 PM 50.0 °F - 46.4 °F 87% 29.66 in 0.5 mi SSE 15.0 mph 20.7 mph N/A Rain Light Rain
6:35 PM 50.0 °F - 48.2 °F 94% 29.65 in 0.5 mi SSE 16.1 mph 21.9 mph N/A   Light Drizzle
6:55 PM 48.2 °F - 46.4 °F 93% 29.64 in 0.5 mi South 13.8 mph 20.7 mph N/A Rain Light Rain
7:15 PM 50.0 °F - 48.2 °F 94% 29.62 in 0.5 mi SSE 13.8 mph 19.6 mph N/A Rain Heavy Rain
7:34 PM 48.2 °F - 46.4 °F 93% 29.63 in 0.8 mi West 9.2 mph - N/A Rain Light Rain
7:55 PM 48.2 °F - 46.4 °F 93% 29.62 in 1.5 mi SSW 12.7 mph 17.3 mph N/A Rain Light Rain
8:15 PM 50.0 °F - 48.2 °F 94% 29.62 in 0.2 mi SW 13.8 mph 21.9 mph N/A Rain Light Rain
8:34 PM 48.2 °F - 46.4 °F 93% 29.61 in 0.2 mi SW 9.2 mph 18.4 mph N/A   Light Drizzle
8:55 PM 48.2 °F - 46.4 °F 93% 29.60 in 0.2 mi SSW 10.4 mph - N/A   Drizzle
9:15 PM 48.2 °F - 46.4 °F 93% 29.60 in 0.2 mi SSW 9.2 mph - N/A Fog Fog
9:35 PM 48.2 °F - 46.4 °F 93% 29.60 in 0.2 mi SW 5.8 mph - N/A Fog Fog
9:55 PM 48.2 °F - 46.4 °F 93% 29.60 in 0.2 mi SW 13.8 mph 19.6 mph N/A Fog Fog
10:15 PM 48.2 °F - 46.4 °F 93% 29.60 in 0.2 mi SW 11.5 mph 17.3 mph N/A Fog Fog
10:34 PM 48.2 °F - 46.4 °F 93% 29.61 in 0.2 mi SSW 11.5 mph 18.4 mph N/A Rain Light Rain
10:55 PM 46.4 °F 41.5 °F 44.6 °F 93% 29.61 in 0.2 mi SW 10.4 mph 18.4 mph N/A Rain Light Rain
11:15 PM 46.4 °F 45.2 °F 44.6 °F 93% 29.61 in 0.5 mi SW 3.5 mph - N/A   Light Drizzle
11:34 PM 50.0 °F - 48.2 °F 94% 29.62 in 2.5 mi WSW 5.8 mph - N/A   Overcast
11:55 PM 50.0 °F - 48.2 °F 94% 29.64 in 5.0 mi West 5.8 mph - N/A   Scattered Clouds